SR8WXD Weather Reports


time (UTC)temp
C
wind
direction
speed
KPH
gust
KPH
rain 1hr
cm
rain 24hr
cm
rain mn
cm
humidity
%
barometer
mb
20260902135803 26 227 9.7 12.9 0.00 0.00 0.00 100
20260902135602 26 241 6.4 9.7 0.00 0.00 0.00 100
20260902135358 26 218 4.8 9.7 0.00 0.00 0.00 100
20260902135157 26 222 6.4 11.3 0.00 0.00 0.00 100
20260902135056 26 232 8.0 14.5 0.00 0.00 0.00 100
20260902134956 26 240 9.7 14.5 0.00 0.00 0.00 100
20260902134754 25 237 8.0 12.9 0.00 0.00 0.00 100
20260902134552 26 214 3.2 8.0 0.00 0.00 0.00 100
20260902134352 26 208 3.2 6.4 0.00 0.00 0.00 100
20260902134152 25 215 1.6 1.6 0.00 0.00 0.00 100
20260902134051 25 214 1.6 4.8 0.00 0.00 0.00 100
20260902133951 25 217 3.2 6.4 0.00 0.00 0.00 100
20260902133751 25 246 4.8 6.4 0.00 0.00 0.00 100
20260902133549 24 256 6.4 9.7 0.00 0.00 0.00 100
20260902133349 23 246 9.7 16.1 0.00 0.00 0.00 100
20260902133147 23 265 8.0 16.1 0.00 0.00 0.00 100
20260902132946 23 310 4.8 8.0 0.00 0.00 0.00 100
20260902132745 25 235 4.8 9.7 0.00 0.00 0.00 100
20260902132545 25 221 6.4 9.7 0.00 0.00 0.00 100
20260902132342 25 216 4.8 8.0 0.00 0.00 0.00 100
20260902132141 24 235 4.8 8.0 0.00 0.00 0.00 100
20260902132041 23 237 6.4 9.7 0.00 0.00 0.00 100
20260902131940 23 242 6.4 12.9 0.00 0.00 0.00 100
20260902131740 23 232 6.4 12.9 0.00 0.00 0.00 100
20260902131539 23 220 8.0 9.7 0.00 0.00 0.00 100
20260902131338 23 232 9.7 14.5 0.00 0.00 0.00 100
20260902131137 24 228 6.4 11.3 0.00 0.00 0.00 100
20260902131036 24 216 4.8 8.0 0.00 0.00 0.00 100
20260902130935 23 213 4.8 8.0 0.00 0.00 0.00 100
20260902130735 23 215 3.2 4.8 0.00 0.00 0.00 100
20260902130534 23 219 6.4 8.0 0.00 0.00 0.00 100
20260902130334 23 245 6.4 9.7 0.00 0.00 0.00 100
20260902130133 23 249 9.7 12.9 0.00 0.00 0.00 100
20260902130033 23 247 9.7 14.5 0.00 0.00 0.00 100
20260902125933 23 236 9.7 14.5 0.00 0.00 0.00 100
20260902125732 23 220 6.4 11.3 0.00 0.00 0.00 100
20260902125530 23 224 4.8 8.0 0.00 0.00 0.00 100
20260902125327 23 233 4.8 8.0 0.00 0.00 0.00 100
20260902125126 23 217 4.8 8.0 0.00 0.00 0.00 100
20260902125026 23 225 4.8 6.4 0.00 0.00 0.00 100
20260902124925 23 238 4.8 8.0 0.00 0.00 0.00 100
20260902124724 23 190 3.2 8.0 0.00 0.00 0.00 100
20260902124524 23 177 4.8 12.9 0.00 0.00 0.00 100
20260902124324 24 229 6.4 12.9 0.00 0.00 0.00 100
20260902124123 24 224 6.4 12.9 0.00 0.00 0.00 100
20260902124022 24 218 6.4 12.9 0.00 0.00 0.00 100
20260902123922 24 221 6.4 12.9 0.00 0.00 0.00 100
20260902123722 24 231 4.8 6.4 0.00 0.00 0.00 100
20260902123521 24 251 6.4 9.7 0.00 0.00 0.00 100
20260902123320 24 242 9.7 12.9 0.00 0.00 0.00 100
20260902123119 23 231 9.7 12.9 0.00 0.00 0.00 100
20260902123019 23 216 6.4 12.9 0.00 0.00 0.00 100
20260902122918 23 180 4.8 9.7 0.00 0.00 0.00 100
20260902122718 23 53 6.4 11.3 0.00 0.00 0.00 100
20260902122518 24 180 4.8 11.3 0.00 0.00 0.00 100
20260902122314 25 202 6.4 11.3 0.00 0.00 0.00 100
20260902122113 25 225 4.8 8.0 0.00 0.00 0.00 100
20260902122012 25 216 3.2 8.0 0.00 0.00 0.00 100
20260902121708 24 199 4.8 8.0 0.00 0.00 0.00 100
20260902121501 24 201 6.4 9.7 0.00 0.00 0.00 100
20260902121303 23 199 4.8 9.7 0.00 0.00 0.00 100
20260902121103 23 207 6.4 11.3 0.00 0.00 0.00 100
20260902121000 22 209 6.4 11.3 0.00 0.00 0.00 100
20260902120902 22 217 4.8 9.7 0.00 0.00 0.00 100
20260902120702 22 221 3.2 6.4 0.00 0.00 0.00 100
20260902120458 22 220 4.8 11.3 0.00 0.00 0.00 100
20260902120302 22 220 11.3 14.5 0.00 0.00 0.00 100
20260902120058 22 228 8.0 14.5 0.00 0.00 0.00 100
20260902115957 23 239 6.4 9.7 0.00 0.00 0.00 100
20260902115857 22 256 6.4 8.0 0.00 0.00 0.00 100
20260902115656 22 254 8.0 12.9 0.00 0.00 0.00 100
20260902115455 22 240 8.0 12.9 0.00 0.00 0.00 100
20260902115251 22 236 9.7 16.1 0.00 0.00 0.00 100
20260902115050 22 235 12.9 16.1 0.00 0.00 0.00 100
20260902114950 22 235 9.7 16.1 0.00 0.00 0.00 100
20260902114850 22 236 8.0 12.9 0.00 0.00 0.00 100
20260902114648 23 241 4.8 9.7 0.00 0.00 0.00 100
20260902114447 25 225 3.2 6.4 0.00 0.00 0.00 100
20260902114247 24 223 6.4 12.9 0.00 0.00 0.00 100
20260902114047 24 226 9.7 16.1 0.00 0.00 0.00 100
20260902113946 24 222 9.7 16.1 0.00 0.00 0.00 100
20260902113846 24 218 9.7 16.1 0.00 0.00 0.00 100
20260902113645 24 210 8.0 12.9 0.00 0.00 0.00 100
20260902113444 24 218 8.0 14.5 0.00 0.00 0.00 100
20260902113244 23 231 8.0 14.5 0.00 0.00 0.00 100
20260902113043 23 235 6.4 11.3 0.00 0.00 0.00 100
20260902112943 23 234 8.0 11.3 0.00 0.00 0.00 100
20260902112842 23 231 9.7 16.1 0.00 0.00 0.00 100
20260902112641 24 228 9.7 16.1 0.00 0.00 0.00 100
20260902112438 23 228 8.0 11.3 0.00 0.00 0.00 100
20260902112237 23 248 8.0 12.9 0.00 0.00 0.00 100
20260902112036 23 268 9.7 12.9 0.00 0.00 0.00 100
20260902111934 24 269 11.3 12.9 0.00 0.00 0.00 100
20260902111836 24 257 11.3 16.1 0.00 0.00 0.00 100
20260902111636 24 235 11.3 16.1 0.00 0.00 0.00 100
20260902111433 24 235 9.7 16.1 0.00 0.00 0.00 100
20260902111238 24 220 3.2 9.7 0.00 0.00 0.00 100
20260902111034 23 250 6.4 14.5 0.00 0.00 0.00 100
20260902110931 24 255 9.7 14.5 0.00 0.00 0.00 100
20260902110833 24 234 9.7 14.5 0.00 0.00 0.00 100
20260902110632 23 232 6.4 11.3 0.00 0.00 0.00 100
20260902110429 23 242 9.7 12.9 0.00 0.00 0.00 100
20260902110228 23 250 11.3 14.5 0.00 0.00 0.00 100
20260902110027 23 232 12.9 19.3 0.00 0.00 0.00 100
20260902105927 23 229 14.5 19.3 0.00 0.00 0.00 100
20260902105826 23 219 11.3 19.3 0.00 0.00 0.00 100
20260902105627 22 218 6.4 14.5 0.00 0.00 0.00 100
20260902105424 22 234 9.7 16.1 0.00 0.00 0.00 100
20260902105220 22 253 11.3 16.1 0.00 0.00 0.00 100
20260902105018 22 248 12.9 16.1 0.00 0.00 0.00 100
20260902104919 22 250 12.9 16.1 0.00 0.00 0.00 100
20260902104818 22 251 12.9 16.1 0.00 0.00 0.00 100
20260902104619 23 243 11.3 16.1 0.00 0.00 0.00 100
20260902104416 23 250 6.4 12.9 0.00 0.00 0.00 100
20260902104215 22 228 9.7 14.5 0.00 0.00 0.00 100
20260902104015 22 248 11.3 19.3 0.00 0.00 0.00 100
20260902103915 23 261 11.3 19.3 0.00 0.00 0.00 100
20260902103815 22 254 9.7 17.7 0.00 0.00 0.00 100
20260902103614 22 253 8.0 11.3 0.00 0.00 0.00 100
20260902103412 22 243 8.0 12.9 0.00 0.00 0.00 100
20260902103211 21 234 9.7 16.1 0.00 0.00 0.00 100
20260902103010 21 246 12.9 19.3 0.00 0.00 0.00 100
20260902102911 21 248 12.9 19.3 0.00 0.00 0.00 100
20260902102811 21 246 11.3 19.3 0.00 0.00 0.00 100
20260902102610 21 236 8.0 12.9 0.00 0.00 0.00 100
20260902102409 21 224 8.0 12.9 0.00 0.00 0.00 100
20260902102206 21 239 9.7 12.9 0.00 0.00 0.00 100
20260902102004 22 251 9.7 12.9 0.00 0.00 0.00 100
20260902101903 22 258 8.0 12.9 0.00 0.00 0.00 100
20260902101803 22 263 9.7 12.9 0.00 0.00 0.00 100
20260902101603 22 245 8.0 11.3 0.00 0.00 0.00 100
20260902101401 22 246 9.7 14.5 0.00 0.00 0.00 100
20260902101210 22 243 11.3 14.5 0.00 0.00 0.00 100
20260902101009 23 234 12.9 19.3 0.00 0.00 0.00 100
20260902100859 23 229 12.9 19.3 0.00 0.00 0.00 100
20260902100809 23 227 12.9 17.7 0.00 0.00 0.00 100
20260902100606 23 227 11.3 17.7 0.00 0.00 0.00 100
20260902100356 23 225 8.0 14.5 0.00 0.00 0.00 100
20260902100155 22 225 9.7 17.7 0.00 0.00 0.00 100
20260902095956 22 225 11.3 17.7 0.00 0.00 0.00 100
20260902095854 22 227 11.3 17.7 0.00 0.00 0.00 100
20260902095754 22 226 11.3 16.1 0.00 0.00 0.00 100
20260902095554 23 235 9.7 16.1 0.00 0.00 0.00 100
20260902095352 23 247 9.7 16.1 0.00 0.00 0.00 100
20260902095151 22 241 11.3 20.9 0.00 0.00 0.00 100
20260902094952 22 226 11.3 20.9 0.00 0.00 0.00 100
20260902094848 22 223 9.7 17.7 0.00 0.00 0.00 100
20260902094747 22 230 8.0 12.9 0.00 0.00 0.00 100
20260902094546 22 240 9.7 12.9 0.00 0.00 0.00 100
20260902094345 22 231 8.0 12.9 0.00 0.00 0.00 100
20260902094131 22 224 6.4 12.9 0.00 0.00 0.00 100
20260902093931 21 236 8.0 12.9 0.00 0.00 0.00 100
20260902093830 21 244 6.4 9.7 0.00 0.00 0.00 100
20260902093731 21 237 8.0 14.5 0.00 0.00 0.00 100
20260902093529 21 239 9.7 14.5 0.00 0.00 0.00 100
20260902093327 21 244 6.4 14.5 0.00 0.00 0.00 100
20260902093127 21 252 9.7 14.5 0.00 0.00 0.00 100
20260902092927 21 245 6.4 14.5 0.00 0.00 0.00 100
20260902092825 21 230 6.4 11.3 0.00 0.00 0.00 100
20260902092725 21 235 6.4 11.3 0.00 0.00 0.00 100
20260902092525 21 255 6.4 9.7 0.00 0.00 0.00 100
20260902092322 21 238 8.0 9.7 0.00 0.00 0.00 100
20260902092116 20 225 8.0 12.9 0.00 0.00 0.00 100
20260902091915 20 234 8.0 12.9 0.00 0.00 0.00 100
20260902091814 20 256 8.0 11.3 0.00 0.00 0.00 100
20260902091713 20 260 8.0 11.3 0.00 0.00 0.00 100
20260902091512 20 254 9.7 12.9 0.00 0.00 0.00 100
20260902091312 20 252 8.0 12.9 0.00 0.00 0.00 100
20260902091110 20 241 4.8 9.7 0.00 0.00 0.00 100
20260902090909 20 225 3.2 4.8 0.00 0.00 0.00 100
20260902090808 20 215 3.2 4.8 0.00 0.00 0.00 100
20260902090708 20 213 4.8 6.4 0.00 0.00 0.00 100
20260902090507 20 220 6.4 8.0 0.00 0.00 0.00 100
20260902090307 20 245 6.4 9.7 0.00 0.00 0.00 100
20260902090106 20 234 6.4 11.3 0.00 0.00 0.00 100
20260902085906 20 229 6.4 11.3 0.00 0.00 0.00 100
20260902085805 20 225 6.4 11.3 0.00 0.00 0.00 100
20260902085705 20 225 6.4 8.0 0.00 0.00 0.00 100
20260902085504 20 232 8.0 12.9 0.00 0.00 0.00 100
20260902085305 20 235 9.7 12.9 0.00 0.00 0.00 100
20260902085100 20 222 8.0 12.9 0.00 0.00 0.00 100
20260902084859 20 220 6.4 9.7 0.00 0.00 0.00 100
20260902084757 20 224 6.4 9.7 0.00 0.00 0.00 100
20260902084658 20 227 8.0 12.9 0.00 0.00 0.00 100
20260902084458 20 238 9.7 16.1 0.00 0.00 0.00 100
20260902084255 20 246 8.0 16.1 0.00 0.00 0.00 100
20260902084055 19 258 8.0 9.7 0.00 0.00 0.00 100
20260902083855 19 242 4.8 9.7 0.00 0.00 0.00 100
20260902083752 19 232 3.2 6.4 0.00 0.00 0.00 100
20260902083654 19 228 4.8 11.3 0.00 0.00 0.00 100
20260902083453 20 239 9.7 12.9 0.00 0.00 0.00 100
20260902083251 20 254 9.7 12.9 0.00 0.00 0.00 100
20260902083052 20 247 6.4 11.3 0.00 0.00 0.00 100
20260902082851 20 234 4.8 9.7 0.00 0.00 0.00 100
20260902082750 20 227 6.4 11.3 0.00 0.00 0.00 100
20260902082651 20 221 6.4 11.3 0.00 0.00 0.00 100
20260902082452 19 218 6.4 11.3 0.00 0.00 0.00 100
20260902082249 19 243 8.0 11.3 0.00 0.00 0.00 100
20260902082050 19 244 6.4 9.7 0.00 0.00 0.00 100
20260902081850 20 240 9.7 12.9 0.00 0.00 0.00 100
20260902081744 19 249 9.7 12.9 0.00 0.00 0.00 100
20260902081648 19 239 9.7 14.5 0.00 0.00 0.00 100
20260902081448 19 235 9.7 14.5 0.00 0.00 0.00 100
20260902081242 19 253 9.7 14.5 0.00 0.00 0.00 100
20260902081047 19 246 8.0 12.9 0.00 0.00 0.00 100
20260902080846 19 225 8.0 11.3 0.00 0.00 0.00 100
20260902080740 19 231 8.0 11.3 0.00 0.00 0.00 100
20260902080645 19 221 9.7 11.3 0.00 0.00 0.00 100
20260902080445 19 227 6.4 11.3 0.00 0.00 0.00 100
20260902080238 19 228 6.4 12.9 0.00 0.00 0.00 100
20260902080044 19 225 4.8 8.0 0.00 0.00 0.00 100
20260902075844 19 239 3.2 6.4 0.00 0.00 0.00 100
20260902075737 19 247 4.8 8.0 0.00 0.00 0.00 100
20260902075644 19 245 6.4 11.3 0.00 0.00 0.00 100
20260902075443 19 242 9.7 11.3 0.00 0.00 0.00 100
20260902075236 18 233 6.4 11.3 0.00 0.00 0.00 100
20260902075031 18 248 6.4 9.7 0.00 0.00 0.00 100
20260902074831 19 254 6.4 9.7 0.00 0.00 0.00 100
20260902074730 18 250 6.4 9.7 0.00 0.00 0.00 100
20260902074629 18 255 6.4 8.0 0.00 0.00 0.00 100
20260902074429 18 250 8.0 12.9 0.00 0.00 0.00 100
20260902074228 18 241 4.8 9.7 0.00 0.00 0.00 100
20260902074028 18 245 6.4 12.9 0.00 0.00 0.00 100
20260902073827 18 256 3.2 12.9 0.00 0.00 0.00 100
20260902073727 18 251 1.6 6.4 0.00 0.00 0.00 100
20260902073626 18 235 3.2 6.4 0.00 0.00 0.00 100
20260902073426 18 206 1.6 4.8 0.00 0.00 0.00 100
20260902073226 18 210 3.2 6.4 0.00 0.00 0.00 100
20260902073026 18 231 6.4 9.7 0.00 0.00 0.00 100
20260902072825 18 254 6.4 9.7 0.00 0.00 0.00 100
20260902072725 18 263 6.4 9.7 0.00 0.00 0.00 100
20260902072625 18 253 6.4 9.7 0.00 0.00 0.00 100
20260902072425 18 224 3.2 9.7 0.00 0.00 0.00 100
20260902072224 18 209 4.8 8.0 0.00 0.00 0.00 100
20260902072020 18 223 8.0 11.3 0.00 0.00 0.00 100
20260902071820 18 234 8.0 11.3 0.00 0.00 0.00 100
20260902071719 18 229 6.4 9.7 0.00 0.00 0.00 100
20260902071619 18 218 4.8 9.7 0.00 0.00 0.00 100
20260902071419 18 212 4.8 8.0 0.00 0.00 0.00 100
20260902071219 18 224 8.0 9.7 0.00 0.00 0.00 100
20260902071018 17 226 6.4 9.7 0.00 0.00 0.00 100
20260902070818 17 223 6.4 9.7 0.00 0.00 0.00 100
20260902070717 17 224 8.0 11.3 0.00 0.00 0.00 100
20260902070403 17 219 9.7 11.3 0.00 0.00 0.00 100
20260902070202 17 214 8.0 12.9 0.00 0.00 0.00 100
20260902070000 17 213 4.8 9.7 0.00 0.00 0.00 100
20260902065759 17 216 8.0 14.5 0.00 0.00 0.00 100
20260902065700 17 217 9.7 14.5 0.00 0.00 0.00 100
20260902065559 17 220 9.7 14.5 0.00 0.00 0.00 100
20260902065358 17 220 9.7 12.9 0.00 0.00 0.00 100
20260902065157 17 213 6.4 9.7 0.00 0.00 0.00 100
20260902065005 17 220 6.4 11.3 0.00 0.00 0.00 100
20260902064751 17 227 8.0 11.3 0.00 0.00 0.00 100
20260902064651 17 223 6.4 9.7 0.00 0.00 0.00 100
20260902064551 17 220 6.4 9.7 0.00 0.00 0.00 100
20260902064351 17 227 6.4 9.7 0.00 0.00 0.00 100
20260902064200 17 221 6.4 9.7 0.00 0.00 0.00 100
20260902063950 17 221 8.0 12.9 0.00 0.00 0.00 100
20260902063749 17 226 6.4 11.3 0.00 0.00 0.00 100
20260902063648 17 231 8.0 12.9 0.00 0.00 0.00 100
20260902063549 17 231 8.0 12.9 0.00 0.00 0.00 100
20260902063348 17 229 6.4 8.0 0.00 0.00 0.00 100
20260902063147 17 242 6.4 8.0 0.00 0.00 0.00 100
20260902062946 17 235 4.8 6.4 0.00 0.00 0.00 100
20260902062746 17 219 4.8 6.4 0.00 0.00 0.00 100
20260902062646 17 219 4.8 6.4 0.00 0.00 0.00 100
20260902062546 17 224 4.8 8.0 0.00 0.00 0.00 100
20260902062346 16 229 4.8 8.0 0.00 0.00 0.00 100
20260902062145 16 225 4.8 8.0 0.00 0.00 0.00 100
20260902061942 16 229 4.8 6.4 0.00 0.00 0.00 100
20260902061742 17 231 3.2 6.4 0.00 0.00 0.00 100
20260902061641 16 240 3.2 6.4 0.00 0.00 0.00 100
20260902061541 16 245 3.2 6.4 0.00 0.00 0.00 100
20260902061341 16 233 3.2 4.8 0.00 0.00 0.00 100
20260902061141 16 225 4.8 6.4 0.00 0.00 0.00 100
20260902060940 16 235 4.8 6.4 0.00 0.00 0.00 100
20260902060739 16 227 4.8 6.4 0.00 0.00 0.00 100
20260902060639 16 229 4.8 6.4 0.00 0.00 0.00 100
20260902060538 16 232 4.8 6.4 0.00 0.00 0.00 100
20260902060337 16 228 4.8 8.0 0.00 0.00 0.00 100
20260902060137 16 219 4.8 6.4 0.00 0.00 0.00 100
20260902055936 16 219 6.4 8.0 0.00 0.00 0.00 100
20260902055746 16 217 6.4 8.0 0.00 0.00 0.00 100
20260902055635 16 218 4.8 8.0 0.00 0.00 0.00 100
20260902055535 16 218 4.8 8.0 0.00 0.00 0.00 100
20260902055335 16 215 3.2 4.8 0.00 0.00 0.00 100
20260902055134 15 215 3.2 6.4 0.00 0.00 0.00 100
20260902054930 15 214 1.6 1.6 0.00 0.00 0.00 100
20260902054730 15 213 1.6 3.2 0.00 0.00 0.00 100
20260902054630 15 211 1.6 3.2 0.00 0.00 0.00 100
20260902054530 15 211 1.6 3.2 0.00 0.00 0.00 100
20260902054330 15 208 3.2 3.2 0.00 0.00 0.00 100
20260902054130 15 208 3.2 3.2 0.00 0.00 0.00 100
20260902053930 15 208 3.2 3.2 0.00 0.00 0.00 100
20260902053729 15 208 3.2 4.8 0.00 0.00 0.00 100
20260902053629 15 208 3.2 4.8 0.00 0.00 0.00 100
20260902053529 15 208 4.8 4.8 0.00 0.00 0.00 100
20260902053329 15 209 3.2 4.8 0.00 0.00 0.00 100
20260902053129 15 208 3.2 4.8 0.00 0.00 0.00 100
20260902052928 15 210 4.8 4.8 0.00 0.00 0.00 100
20260902052728 15 210 3.2 4.8 0.00 0.00 0.00 100
20260902052628 15 208 4.8 4.8 0.00 0.00 0.00 100
20260902052528 15 208 4.8 6.4 0.00 0.00 0.00 100
20260902052327 15 206 4.8 6.4 0.00 0.00 0.00 100
20260902052126 15 206 4.8 6.4 0.00 0.00 0.00 100
20260902051924 14 208 4.8 6.4 0.00 0.00 0.00 100
20260902051722 14 211 6.4 6.4 0.00 0.00 0.00 100
20260902051620 14 211 6.4 6.4 0.00 0.00 0.00 100
20260902051521 14 211 4.8 6.4 0.00 0.00 0.00 100
20260902051321 14 208 4.8 6.4 0.00 0.00 0.00 100
20260902051118 14 208 4.8 6.4 0.00 0.00 0.00 100
20260902050919 14 211 6.4 6.4 0.00 0.00 0.00 100
20260902050719 14 210 4.8 6.4 0.00 0.00 0.00 100
20260902050616 14 212 4.8 6.4 0.00 0.00 0.00 100
20260902050518 14 216 4.8 6.4 0.00 0.00 0.00 100
20260902050326 14 212 6.4 6.4 0.00 0.00 0.00 100
20260902050114 14 206 6.4 6.4 0.00 0.00 0.00 100
20260902045914 14 208 4.8 6.4 0.00 0.00 0.00 100
20260902045712 14 207 4.8 6.4 0.00 0.00 0.00 100
20260902045612 14 202 4.8 6.4 0.00 0.00 0.00 100
20260902045511 14 202 4.8 6.4 0.00 0.00 0.00 100
20260902045310 14 202 4.8 6.4 0.00 0.00 0.00 100
20260902045108 14 202 4.8 6.4 0.00 0.00 0.00 100
20260902044904 14 202 6.4 6.4 0.00 0.00 0.00 100
20260902044703 14 202 6.4 6.4 0.00 0.00 0.00 100
20260902044603 14 205 6.4 6.4 0.00 0.00 0.00 100
20260902044503 13 205 6.4 8.0 0.00 0.00 0.00 100
20260902044302 13 202 6.4 8.0 0.00 0.00 0.00 100
20260902044101 13 202 6.4 8.0 0.00 0.00 0.00 100
20260902043900 13 205 6.4 8.0 0.00 0.00 0.00 100
20260902043700 13 209 6.4 6.4 0.00 0.00 0.00 100
20260902043559 13 205 6.4 6.4 0.00 0.00 0.00 100
20260902043458 13 202 6.4 6.4 0.00 0.00 0.00 100
20260902043258 13 205 6.4 6.4 0.00 0.00 0.00 100
20260902043057 13 205 6.4 6.4 0.00 0.00 0.00 100
20260902042843 13 202 6.4 6.4 0.00 0.00 0.00 100
20260902042642 13 202 6.4 8.0 0.00 0.00 0.00 100
20260902042542 13 205 6.4 8.0 0.00 0.00 0.00 100
20260902042441 13 205 6.4 6.4 0.00 0.00 0.00 100
20260902042251 13 202 6.4 6.4 0.00 0.00 0.00 100
20260902042040 13 202 6.4 6.4 0.00 0.00 0.00 100
20260902041837 13 202 6.4 6.4 0.00 0.00 0.00 100
20260902041635 13 202 6.4 6.4 0.00 0.00 0.00 100
20260902041535 13 205 6.4 6.4 0.00 0.00 0.00 100
20260902041434 13 205 6.4 6.4 0.00 0.00 0.00 100
20260902041234 13 202 6.4 6.4 0.00 0.00 0.00 100
20260902041033 12 204 4.8 6.4 0.00 0.00 0.00 100
20260902040832 12 208 4.8 6.4 0.00 0.00 0.00 100
20260902040631 12 208 4.8 6.4 0.00 0.00 0.00 100
20260902040531 13 208 6.4 6.4 0.00 0.00 0.00 100
20260902040431 13 208 6.4 6.4 0.00 0.00 0.00 100
20260902040231 13 208 6.4 6.4 0.00 0.00 0.00 100
20260902040031 13 211 6.4 6.4 0.00 0.00 0.00 100
20260902035830 12 208 6.4 6.4 0.00 0.00 0.00 100
20260902035629 12 211 4.8 6.4 0.00 0.00 0.00 100
20260902035529 12 211 4.8 6.4 0.00 0.00 0.00 100
20260902035429 12 214 4.8 6.4 0.00 0.00 0.00 100
20260902035228 13 214 4.8 6.4 0.00 0.00 0.00 100
20260902035028 13 211 4.8 6.4 0.00 0.00 0.00 100
20260902034825 13 208 4.8 6.4 0.00 0.00 0.00 100
20260902034625 12 208 4.8 4.8 0.00 0.00 0.00 100
20260902034524 12 208 4.8 4.8 0.00 0.00 0.00 100
20260902034425 12 208 4.8 4.8 0.00 0.00 0.00 100
20260902034224 12 208 4.8 4.8 0.00 0.00 0.00 100
20260902034023 12 208 4.8 4.8 0.00 0.00 0.00 100
20260902033823 12 208 4.8 4.8 0.00 0.00 0.00 100
20260902033623 12 208 4.8 4.8 0.00 0.00 0.00 100
20260902033522 12 208 4.8 4.8 0.00 0.00 0.00 100
20260902033422 12 208 4.8 4.8 0.00 0.00 0.00 100
20260902033221 12 208 4.8 4.8 0.00 0.00 0.00 100
20260902033021 12 208 3.2 4.8 0.00 0.00 0.00 100
20260902032820 12 208 4.8 4.8 0.00 0.00 0.00 100
20260902032620 12 208 4.8 6.4 0.00 0.00 0.00 100
20260902032520 12 208 4.8 6.4 0.00 0.00 0.00 100
20260902032419 12 208 4.8 6.4 0.00 0.00 0.00 100
20260902032219 12 208 6.4 6.4 0.00 0.00 0.00 100
20260902032018 12 208 6.4 6.4 0.00 0.00 0.00 100
20260902031816 12 208 6.4 6.4 0.00 0.00 0.00 100
20260902031616 12 208 4.8 6.4 0.00 0.00 0.00 100
20260902031514 12 208 6.4 6.4 0.00 0.00 0.00 100
20260902031415 12 208 6.4 6.4 0.00 0.00 0.00 100
20260902031214 12 208 6.4 6.4 0.00 0.00 0.00 100
20260902031013 12 208 6.4 6.4 0.00 0.00 0.00 100
20260902030814 12 208 6.4 6.4 0.00 0.00 0.00 100
20260902030613 12 208 4.8 6.4 0.00 0.00 0.00 100
20260902030511 12 208 4.8 6.4 0.00 0.00 0.00 100
20260902030412 12 208 4.8 6.4 0.00 0.00 0.00 100
20260902030212 12 208 4.8 6.4 0.00 0.00 0.00 100
20260902030010 12 208 4.8 6.4 0.00 0.00 0.00 100
20260902025811 12 208 4.8 6.4 0.00 0.00 0.00 100
20260902025611 12 211 4.8 6.4 0.00 0.00 0.00 100
20260902025510 12 211 4.8 6.4 0.00 0.00 0.00 100
20260902025411 12 211 4.8 4.8 0.00 0.00 0.00 100
20260902025210 12 211 4.8 4.8 0.00 0.00 0.00 100
20260902025008 12 208 4.8 4.8 0.00 0.00 0.00 100
20260902024809 12 211 4.8 4.8 0.00 0.00 0.00 100
20260902024608 12 211 4.8 4.8 0.00 0.00 0.00 100
20260902024502 12 208 4.8 4.8 0.00 0.00 0.00 100
20260902024408 12 211 4.8 4.8 0.00 0.00 0.00 100
20260902024207 12 219 4.8 6.4 0.00 0.00 0.00 100
20260902024002 12 215 4.8 6.4 0.00 0.00 0.00 100
20260902023807 12 211 6.4 6.4 0.00 0.00 0.00 100
20260902023607 12 208 6.4 6.4 0.00 0.00 0.00 100
20260902023500 12 208 6.4 6.4 0.00 0.00 0.00 100
20260902023406 12 208 6.4 6.4 0.00 0.00 0.00 100
20260902023206 12 208 6.4 6.4 0.00 0.00 0.00 100
20260902022959 12 208 6.4 6.4 0.00 0.00 0.00 100
20260902022804 12 208 6.4 6.4 0.00 0.00 0.00 100
20260902022604 12 208 6.4 6.4 0.00 0.00 0.00 100
20260902022457 12 208 6.4 6.4 0.00 0.00 0.00 100
20260902022403 12 208 6.4 6.4 0.00 0.00 0.00 100
20260902022203 13 211 6.4 6.4 0.00 0.00 0.00 100
20260902021955 13 211 6.4 6.4 0.00 0.00 0.00 100
20260902021751 13 208 6.4 6.4 0.00 0.00 0.00 100
20260902021550 13 211 6.4 6.4 0.00 0.00 0.00 100
20260902021450 13 211 6.4 8.0 0.00 0.00 0.00 100
20260902021400 13 211 6.4 8.0 0.00 0.00 0.00 100
20260902021148 13 212 6.4 8.0 0.00 0.00 0.00 100
20260902020947 13 213 8.0 8.0 0.00 0.00 0.00 100
20260902020746 13 217 8.0 8.0 0.00 0.00 0.00 100
20260902020546 13 213 8.0 9.7 0.00 0.00 0.00 100
20260902020446 13 217 8.0 9.7 0.00 0.00 0.00 100
20260902020346 13 218 8.0 9.7 0.00 0.00 0.00 100
20260902020145 13 216 8.0 9.7 0.00 0.00 0.00 100
20260902015945 13 215 6.4 8.0 0.00 0.00 0.00 100
20260902015744 13 209 6.4 8.0 0.00 0.00 0.00 100
20260902015543 12 210 6.4 6.4 0.00 0.00 0.00 100
20260902015443 12 210 6.4 6.4 0.00 0.00 0.00 100
20260902015132 12 208 6.4 6.4 0.00 0.00 0.00 100
20260902014931 12 208 4.8 6.4 0.00 0.00 0.00 100
20260902014729 13 214 4.8 6.4 0.00 0.00 0.00 100
20260902014528 13 210 4.8 4.8 0.00 0.00 0.00 100
20260902014427 13 208 3.2 4.8 0.00 0.00 0.00 100
20260902014328 13 208 3.2 4.8 0.00 0.00 0.00 100
20260902014127 13 216 3.2 4.8 0.00 0.00 0.00 100
20260902013926 13 220 4.8 4.8 0.00 0.00 0.00 100
20260902013727 13 219 4.8 6.4 0.00 0.00 0.00 100
20260902013526 13 219 4.8 6.4 0.00 0.00 0.00 100
20260902013425 13 220 4.8 6.4 0.00 0.00 0.00 100
20260902013325 13 221 4.8 6.4 0.00 0.00 0.00 100
20260902013125 13 225 6.4 6.4 0.00 0.00 0.00 100
20260902012924 13 228 6.4 6.4 0.00 0.00 0.00 100
20260902012723 13 235 6.4 6.4 0.00 0.00 0.00 100
20260902012523 13 234 6.4 8.0 0.00 0.00 0.00 100
20260902012423 13 237 6.4 8.0 0.00 0.00 0.00 100
20260902012323 13 237 6.4 8.0 0.00 0.00 0.00 100
20260902012122 13 236 6.4 6.4 0.00 0.00 0.00 100
20260902011922 13 236 6.4 6.4 0.00 0.00 0.00 100
20260902011718 13 232 6.4 6.4 0.00 0.00 0.00 100
20260902011518 13 230 6.4 6.4 0.00 0.00 0.00 100
20260902011417 13 228 4.8 6.4 0.00 0.00 0.00 100
20260902011318 13 230 4.8 6.4 0.00 0.00 0.00 100
20260902011117 13 229 4.8 6.4 0.00 0.00 0.00 100
20260902010915 13 231 4.8 6.4 0.00 0.00 0.00 100
20260902010717 13 226 3.2 4.8 0.00 0.00 0.00 100
20260902010515 13 219 3.2 4.8 0.00 0.00 0.00 100
20260902010414 13 219 3.2 4.8 0.00 0.00 0.00 100
20260902010315 13 219 3.2 4.8 0.00 0.00 0.00 100
20260902010115 13 215 3.2 4.8 0.00 0.00 0.00 100
20260902005913 13 212 3.2 4.8 0.00 0.00 0.00 100
20260902005714 13 212 3.2 4.8 0.00 0.00 0.00 100
20260902005514 13 214 3.2 4.8 0.00 0.00 0.00 100
20260902005412 13 214 3.2 4.8 0.00 0.00 0.00 100
20260902005314 13 214 3.2 3.2 0.00 0.00 0.00 100
20260902005114 13 214 3.2 3.2 0.00 0.00 0.00 100
20260902004911 13 214 3.2 3.2 0.00 0.00 0.00 100
20260902004508 13 218 3.2 4.8 0.00 0.00 0.00 100
20260902004407 13 220 4.8 4.8 0.00 0.00 0.00 100
20260902004307 13 222 4.8 6.4 0.00 0.00 0.00 100
20260902004107 13 224 4.8 6.4 0.00 0.00 0.00 100
20260902003905 13 227 4.8 6.4 0.00 0.00 0.00 100
20260902003706 13 224 4.8 6.4 0.00 0.00 0.00 100
20260902003506 13 226 4.8 6.4 0.00 0.00 0.00 100
20260902003404 13 227 4.8 6.4 0.00 0.00 0.00 100
20260902003306 13 228 6.4 6.4 0.00 0.00 0.00 100
20260902003105 13 232 6.4 6.4 0.00 0.00 0.00 100
20260902002902 13 230 4.8 6.4 0.00 0.00 0.00 100
20260902002703 13 226 6.4 8.0 0.00 0.00 0.00 100
20260902002502 13 227 6.4 8.0 0.00 0.00 0.00 100
20260902002400 13 226 6.4 8.0 0.00 0.00 0.00 100
20260902002306 13 227 6.4 8.0 0.00 0.00 0.00 100
20260902002102 13 230 6.4 9.7 0.00 0.00 0.00 100
20260902001900 13 237 8.0 9.7 0.00 0.00 0.00 100
20260902001656 13 237 6.4 8.0 0.00 0.00 0.00 100
20260902001456 13 239 6.4 8.0 0.00 0.00 0.00 100
20260902001354 13 246 6.4 8.0 0.00 0.00 0.00 100
20260902001255 13 243 6.4 9.7 0.00 0.00 0.00 100
20260902001054 13 240 6.4 9.7 0.00 0.00 0.00 100
20260902000852 13 233 6.4 9.7 0.00 0.00 0.00 100
20260902000651 13 231 8.0 9.7 0.00 0.00 0.00 100
20260902000451 13 232 6.4 9.7 0.00 0.00 0.00 100
20260902000348 13 233 6.4 9.7 0.00 0.00 0.00 100
20260902000249 13 232 6.4 9.7 0.00 0.00 0.00 100
20260902000047 13 234 6.4 9.7 0.00 0.00 0.00 100
20260901235846 13 233 6.4 11.3 0.00 0.00 0.00 100
20260901235645 13 235 8.0 11.3 0.00 0.00 0.00 100
20260901235445 13 241 8.0 9.7 0.00 0.00 0.00 100
20260901235344 13 235 8.0 11.3 0.00 0.00 0.00 100
20260901235243 13 234 8.0 11.3 0.00 0.00 0.00 100
20260901235041 13 230 8.0 11.3 0.00 0.00 0.00 100
20260901234840 13 227 8.0 11.3 0.00 0.00 0.00 100
20260901234636 13 229 8.0 11.3 0.00 0.00 0.00 100
20260901234435 13 239 8.0 9.7 0.00 0.00 0.00 100
20260901234334 13 234 8.0 9.7 0.00 0.00 0.00 100
20260901234233 13 227 8.0 9.7 0.00 0.00 0.00 100
20260901234031 13 223 8.0 11.3 0.00 0.00 0.00 100
20260901233831 13 221 9.7 11.3 0.00 0.00 0.00 100
20260901233641 13 221 9.7 12.9 0.00 0.00 0.00 100
20260901233429 13 224 9.7 11.3 0.00 0.00 0.00 100
20260901233329 13 228 9.7 11.3 0.00 0.00 0.00 100
20260901233228 13 229 9.7 11.3 0.00 0.00 0.00 100
20260901233027 13 227 8.0 11.3 0.00 0.00 0.00 100
20260901232826 13 231 8.0 11.3 0.00 0.00 0.00 100
20260901232625 14 230 9.7 11.3 0.00 0.00 0.00 100
20260901232424 14 228 9.7 12.9 0.00 0.00 0.00 100
20260901232324 13 229 8.0 12.9 0.00 0.00 0.00 100
20260901232224 13 228 8.0 12.9 0.00 0.00 0.00 100
20260901232023 13 228 8.0 11.3 0.00 0.00 0.00 100
20260901231822 13 230 8.0 12.9 0.00 0.00 0.00 100
20260901231608 13 229 8.0 9.7 0.00 0.00 0.00 100
20260901231406 13 230 8.0 9.7 0.00 0.00 0.00 100
20260901231302 13 230 8.0 9.7 0.00 0.00 0.00 100
20260901231205 13 230 8.0 11.3 0.00 0.00 0.00 100
20260901231003 13 235 8.0 11.3 0.00 0.00 0.00 100
20260901230759 14 232 8.0 11.3 0.00 0.00 0.00 100
20260901230601 14 230 8.0 11.3 0.00 0.00 0.00 100
20260901230400 14 233 9.7 11.3 0.00 0.00 0.00 100
20260901230257 14 233 9.7 11.3 0.00 0.00 0.00 100
20260901230200 14 231 9.7 11.3 0.00 0.00 0.00 100
20260901225959 14 230 9.7 11.3 0.00 0.00 0.00 100
20260901225754 14 239 9.7 12.9 0.00 0.00 0.00 100
20260901225555 14 230 8.0 11.3 0.00 0.00 0.00 100
20260901225355 14 223 8.0 11.3 0.00 0.00 0.00 100
20260901225154 14 221 6.4 9.7 0.00 0.00 0.00 100
20260901224954 14 221 6.4 8.0 0.00 0.00 0.00 100
20260901224749 14 221 6.4 8.0 0.00 0.00 0.00 100
20260901224552 14 222 6.4 8.0 0.00 0.00 0.00 100
20260901224351 14 228 6.4 9.7 0.00 0.00 0.00 100
20260901224244 14 225 6.4 9.7 0.00 0.00 0.00 100
20260901224151 14 223 6.4 9.7 0.00 0.00 0.00 100
20260901223951 14 218 6.4 8.0 0.00 0.00 0.00 100
20260901223742 14 217 6.4 8.0 0.00 0.00 0.00 100
20260901223549 14 222 6.4 8.0 0.00 0.00 0.00 100
20260901223348 14 225 6.4 9.7 0.00 0.00 0.00 100
20260901223239 14 228 6.4 9.7 0.00 0.00 0.00 100
20260901223147 14 233 6.4 9.7 0.00 0.00 0.00 100
20260901222947 14 230 4.8 8.0 0.00 0.00 0.00 100
20260901222746 14 225 6.4 8.0 0.00 0.00 0.00 100
20260901222546 14 221 6.4 8.0 0.00 0.00 0.00 100
20260901222346 14 226 6.4 8.0 0.00 0.00 0.00 100
20260901222237 14 226 6.4 9.7 0.00 0.00 0.00 100
20260901222145 14 224 6.4 9.7 0.00 0.00 0.00 100
20260901221945 14 223 6.4 8.0 0.00 0.00 0.00 100
20260901221736 14 226 6.4 9.7 0.00 0.00 0.00 100
20260901221531 14 231 6.4 9.7 0.00 0.00 0.00 100
20260901221331 14 230 6.4 9.7 0.00 0.00 0.00 100
20260901221231 14 229 6.4 8.0 0.00 0.00 0.00 100
20260901220940 14 226 6.4 8.0 0.00 0.00 0.00 100
20260901220729 14 225 4.8 6.4 0.00 0.00 0.00 100
20260901220529 14 227 4.8 6.4 0.00 0.00 0.00 100
20260901220327 14 227 3.2 4.8 0.00 0.00 0.00 100
20260901220227 14 225 4.8 6.4 0.00 0.00 0.00 100
20260901220127 14 228 4.8 6.4 0.00 0.00 0.00 100
20260901215926 14 240 3.2 6.4 0.00 0.00 0.00 100
20260901215726 14 234 3.2 4.8 0.00 0.00 0.00 100
20260901215526 14 228 3.2 4.8 0.00 0.00 0.00 100
20260901215326 14 228 4.8 4.8 0.00 0.00 0.00 100
20260901215226 14 230 3.2 4.8 0.00 0.00 0.00 100
20260901215124 15 232 3.2 4.8 0.00 0.00 0.00 100
20260901214924 15 228 3.2 4.8 0.00 0.00 0.00 100
20260901214724 14 228 3.2 4.8 0.00 0.00 0.00 100
20260901214520 14 232 1.6 3.2 0.00 0.00 0.00 100
20260901214320 15 232 3.2 3.2 0.00 0.00 0.00 100
20260901214220 15 232 3.2 3.2 0.00 0.00 0.00 100
20260901214120 15 234 3.2 3.2 0.00 0.00 0.00 100
20260901213919 15 241 1.6 3.2 0.00 0.00 0.00 100
20260901213719 15 237 1.6 1.6 0.00 0.00 0.00 100
20260901213519 15 237 1.6 3.2 0.00 0.00 0.00 100
20260901213319 15 237 1.6 3.2 0.00 0.00 0.00 100
20260901213219 15 237 1.6 3.2 0.00 0.00 0.00 100
20260901213118 15 237 1.6 1.6 0.00 0.00 0.00 100
20260901212918 15 237 1.6 1.6 0.00 0.00 0.00 100
20260901212718 15 237 1.6 1.6 0.00 0.00 0.00 100
20260901212518 15 237 1.6 1.6 0.00 0.00 0.00 100
20260901212318 15 237 1.6 1.6 0.00 0.00 0.00 100
20260901212218 15 237 1.6 1.6 0.00 0.00 0.00 100
20260901212118 15 237 1.6 1.6 0.00 0.00 0.00 100
20260901211917 15 237 1.6 3.2 0.00 0.00 0.00 100
20260901211717 15 238 1.6 3.2 0.00 0.00 0.00 100
20260901211514 15 239 3.2 3.2 0.00 0.00 0.00 100
20260901211314 14 238 3.2 3.2 0.00 0.00 0.00 100
20260901211214 14 237 3.2 3.2 0.00 0.00 0.00 100
20260901211114 14 235 3.2 3.2 0.00 0.00 0.00 100
20260901210913 14 232 3.2 3.2 0.00 0.00 0.00 100
20260901210713 14 236 3.2 3.2 0.00 0.00 0.00 100
20260901210512 14 237 3.2 4.8 0.00 0.00 0.00 100
20260901210312 14 235 4.8 4.8 0.00 0.00 0.00 100
20260901210212 14 232 3.2 4.8 0.00 0.00 0.00 100
20260901210112 14 228 3.2 4.8 0.00 0.00 0.00 100
20260901205912 14 226 3.2 4.8 0.00 0.00 0.00 100
20260901205711 14 232 3.2 4.8 0.00 0.00 0.00 100
20260901205510 14 235 1.6 3.2 0.00 0.00 0.00 100
20260901205310 14 237 1.6 1.6 0.00 0.00 0.00 100
20260901205209 14 237 1.6 1.6 0.00 0.00 0.00 100
20260901205110 14 237 1.6 1.6 0.00 0.00 0.00 100
20260901204909 14 237 1.6 1.6 0.00 0.00 0.00 100
20260901204709 14 237 1.6 3.2 0.00 0.00 0.00 100
20260901204505 15 241 3.2 3.2 0.00 0.00 0.00 100
20260901204305 15 242 3.2 4.8 0.00 0.00 0.00 100
20260901204205 15 245 3.2 4.8 0.00 0.00 0.00 100
20260901203855 15 254 4.8 6.4 0.00 0.00 0.00 100
20260901203655 15 257 6.4 8.0 0.00 0.00 0.00 100
20260901203454 15 257 6.4 9.7 0.00 0.00 0.00 100
20260901203253 15 262 6.4 9.7 0.00 0.00 0.00 100
20260901203152 15 259 6.4 8.0 0.00 0.00 0.00 100
20260901203052 15 254 6.4 6.4 0.00 0.00 0.00 100
20260901202852 15 246 6.4 8.0 0.00 0.00 0.00 100
20260901202651 15 248 6.4 8.0 0.00 0.00 0.00 100
20260901202451 15 247 6.4 9.7 0.00 0.00 0.00 100
20260901202250 15 243 6.4 9.7 0.00 0.00 0.00 100
20260901202148 15 240 6.4 9.7 0.00 0.00 0.00 100
20260901202049 15 242 6.4 9.7 0.00 0.00 0.00 100
20260901201847 15 249 8.0 9.7 0.00 0.00 0.00 100
20260901201645 15 247 8.0 9.7 0.00 0.00 0.00 100
20260901201442 15 245 8.0 9.7 0.00 0.00 0.00 100
20260901201241 15 245 8.0 12.9 0.00 0.00 0.00 100
20260901201138 15 255 8.0 12.9 0.00 0.00 0.00 100
20260901201040 15 258 8.0 12.9 0.00 0.00 0.00 100
20260901200839 15 249 8.0 9.7 0.00 0.00 0.00 100
20260901200637 15 244 9.7 11.3 0.00 0.00 0.00 100
20260901200437 15 248 9.7 11.3 0.00 0.00 0.00 100
20260901200234 15 247 8.0 12.9 0.00 0.00 0.00 100
20260901200134 15 251 8.0 12.9 0.00 0.00 0.00 100
20260901200034 15 248 8.0 9.7 0.00 0.00 0.00 100
20260901195832 15 244 8.0 12.9 0.00 0.00 0.00 100
20260901195630 15 250 9.7 12.9 0.00 0.00 0.00 100
20260901195430 15 255 9.7 12.9 0.00 0.00 0.00 100
20260901195229 15 249 9.7 14.5 0.00 0.00 0.00 100
20260901195127 15 245 9.7 14.5 0.00 0.00 0.00 100
20260901195028 15 251 9.7 14.5 0.00 0.00 0.00 100
20260901194824 15 256 9.7 12.9 0.00 0.00 0.00 100
20260901194623 15 258 9.7 11.3 0.00 0.00 0.00 100
20260901194418 15 248 8.0 11.3 0.00 0.00 0.00 100
20260901194217 15 248 8.0 9.7 0.00 0.00 0.00 100
20260901194116 15 248 8.0 11.3 0.00 0.00 0.00 100
20260901194015 15 250 9.7 11.3 0.00 0.00 0.00 100
20260901193813 15 251 8.0 9.7 0.00 0.00 0.00 100
20260901193612 16 254 9.7 11.3 0.00 0.00 0.00 100
20260901193411 16 247 8.0 11.3 0.00 0.00 0.00 100
20260901193209 16 247 6.4 11.3 0.00 0.00 0.00 100
20260901193109 16 248 6.4 9.7 0.00 0.00 0.00 100
20260901193008 16 250 8.0 11.3 0.00 0.00 0.00 100
20260901192806 16 256 8.0 12.9 0.00 0.00 0.00 100
20260901192605 16 253 8.0 12.9 0.00 0.00 0.00 100
20260901192404 16 252 9.7 12.9 0.00 0.00 0.00 100
20260901192202 16 251 9.7 11.3 0.00 0.00 0.00 100
20260901192102 16 251 8.0 11.3 0.00 0.00 0.00 100
20260901192000 16 259 9.7 12.9 0.00 0.00 0.00 100
20260901191759 16 261 11.3 16.1 0.00 0.00 0.00 100
20260901191557 16 253 11.3 16.1 0.00 0.00 0.00 100
20260901191353 16 256 11.3 16.1 0.00 0.00 0.00 100
20260901191151 16 251 9.7 14.5 0.00 0.00 0.00 100
20260901191050 16 247 9.7 12.9 0.00 0.00 0.00 100
20260901190949 16 253 9.7 11.3 0.00 0.00 0.00 100
20260901190747 16 258 9.7 11.3 0.00 0.00 0.00 100
20260901190546 16 252 9.7 14.5 0.00 0.00 0.00 100
20260901190344 16 254 9.7 14.5 0.00 0.00 0.00 100
20260901190142 16 259 9.7 14.5 0.00 0.00 0.00 100
20260901190041 16 266 9.7 12.9 0.00 0.00 0.00 100
20260901185939 16 268 9.7 12.9 0.00 0.00 0.00 100
20260901185749 16 266 9.7 11.3 0.00 0.00 0.00 100
20260901185539 16 262 8.0 9.7 0.00 0.00 0.00 100
20260901185337 16 272 9.7 11.3 0.00 0.00 0.00 100
20260901185136 16 269 9.7 12.9 0.00 0.00 0.00 100
20260901185035 16 274 9.7 12.9 0.00 0.00 0.00 100
20260901184934 16 275 9.7 12.9 0.00 0.00 0.00 100
20260901184733 16 272 9.7 12.9 0.00 0.00 0.00 100
20260901184531 16 278 9.7 12.9 0.00 0.00 0.00 100
20260901184327 16 276 9.7 12.9 0.00 0.00 0.00 100
20260901184125 16 274 9.7 12.9 0.00 0.00 0.00 100
20260901184025 16 272 9.7 12.9 0.00 0.00 0.00 100
20260901183924 16 280 9.7 12.9 0.00 0.00 0.00 100
20260901183723 16 294 8.0 12.9 0.00 0.00 0.00 100
20260901183522 16 288 8.0 11.3 0.00 0.00 0.00 100
20260901183321 16 292 8.0 11.3 0.00 0.00 0.00 100
20260901183130 16 276 8.0 9.7 0.00 0.00 0.00 100
20260901183019 16 287 8.0 9.7 0.00 0.00 0.00 100
20260901182919 16 292 8.0 9.7 0.00 0.00 0.00 100
20260901182718 16 299 8.0 9.7 0.00 0.00 0.00 100
20260901182518 16 289 6.4 8.0 0.00 0.00 0.00 100
20260901182317 16 274 6.4 8.0 0.00 0.00 0.00 100
20260901182116 16 270 8.0 9.7 0.00 0.00 0.00 100
20260901182016 16 275 6.4 9.7 0.00 0.00 0.00 100
20260901181915 16 275 8.0 9.7 0.00 0.00 0.00 100
20260901181714 16 272 6.4 9.7 0.00 0.00 0.00 100
20260901181514 16 266 6.4 9.7 0.00 0.00 0.00 100
20260901181309 16 267 8.0 11.3 0.00 0.00 0.00 100
20260901181109 16 271 8.0 9.7 0.00 0.00 0.00 100
20260901181008 16 275 8.0 11.3 0.00 0.00 0.00 100
20260901180908 16 267 8.0 11.3 0.00 0.00 0.00 100
20260901180708 17 267 8.0 12.9 0.00 0.00 0.00 100
20260901180506 17 270 9.7 14.5 0.00 0.00 0.00 100
20260901180252 17 269 9.7 14.5 0.00 0.00 0.00 100
20260901180052 17 264 9.7 14.5 0.00 0.00 0.00 100
20260901175952 17 263 11.3 14.5 0.00 0.00 0.00 100
20260901175851 17 256 11.3 14.5 0.00 0.00 0.00 100
20260901175650 17 254 11.3 17.7 0.00 0.00 0.00 100
20260901175448 17 250 11.3 14.5 0.00 0.00 0.00 100
20260901175247 17 250 11.3 14.5 0.00 0.00 0.00 100
20260901175043 17 251 9.7 14.5 0.00 0.00 0.00 100
20260901174942 16 250 9.7 12.9 0.00 0.00 0.00 100
20260901174842 16 246 11.3 14.5 0.00 0.00 0.00 100
20260901174641 16 252 11.3 14.5 0.00 0.00 0.00 100
20260901174438 16 246 11.3 14.5 0.00 0.00 0.00 100
20260901174233 16 245 11.3 14.5 0.00 0.00 0.00 100
20260901174032 16 249 9.7 14.5 0.00 0.00 0.00 100
20260901173932 16 251 9.7 14.5 0.00 0.00 0.00 100
20260901173831 16 249 9.7 14.5 0.00 0.00 0.00 100
20260901173631 16 256 9.7 12.9 0.00 0.00 0.00 100
20260901173429 16 254 9.7 12.9 0.00 0.00 0.00 100
20260901173228 16 259 9.7 12.9 0.00 0.00 0.00 100
20260901173025 16 250 9.7 12.9 0.00 0.00 0.00 100
20260901172924 16 249 9.7 12.9 0.00 0.00 0.00 100
20260901172823 16 252 9.7 12.9 0.00 0.00 0.00 100
20260901172621 16 254 9.7 14.5 0.00 0.00 0.00 100
20260901172421 17 256 9.7 14.5 0.00 0.00 0.00 100
20260901172219 17 260 9.7 12.9 0.00 0.00 0.00 100
20260901172019 17 265 9.7 12.9 0.00 0.00 0.00 100
20260901171918 17 265 9.7 12.9 0.00 0.00 0.00 100
20260901171816 17 262 9.7 11.3 0.00 0.00 0.00 100
20260901171616 17 261 9.7 12.9 0.00 0.00 0.00 100
20260901171414 17 270 11.3 14.5 0.00 0.00 0.00 100
20260901171211 17 263 11.3 14.5 0.00 0.00 0.00 100
20260901171009 17 262 11.3 16.1 0.00 0.00 0.00 100
20260901170808 17 260 9.7 12.9 0.00 0.00 0.00 100
20260901170606 17 270 9.7 12.9 0.00 0.00 0.00 100
20260901170405 18 269 9.7 14.5 0.00 0.00 0.00 100
20260901170204 18 263 11.3 14.5 0.00 0.00 0.00 100
20260901170001 18 256 12.9 17.7 0.00 0.00 0.00 100
20260901165900 18 266 12.9 17.7 0.00 0.00 0.00 100
20260901165758 18 266 11.3 16.1 0.00 0.00 0.00 100
20260901165557 18 258 11.3 16.1 0.00 0.00 0.00 100
20260901165355 18 260 12.9 17.7 0.00 0.00 0.00 100
20260901165154 18 259 12.9 17.7 0.00 0.00 0.00 100
20260901164952 18 252 12.9 17.7 0.00 0.00 0.00 100
20260901164851 18 250 12.9 16.1 0.00 0.00 0.00 100
20260901164750 18 252 14.5 20.9 0.00 0.00 0.00 100
20260901164545 18 254 14.5 20.9 0.00 0.00 0.00 100
20260901164344 18 260 12.9 17.7 0.00 0.00 0.00 100
20260901164140 18 257 12.9 17.7 0.00 0.00 0.00 100
20260901163938 18 265 12.9 17.7 0.00 0.00 0.00 100
20260901163836 18 267 12.9 19.3 0.00 0.00 0.00 100
20260901163735 18 260 12.9 19.3 0.00 0.00 0.00 100
20260901163532 18 251 12.9 19.3 0.00 0.00 0.00 100
20260901163329 18 262 9.7 16.1 0.00 0.00 0.00 100
20260901163128 18 254 9.7 16.1 0.00 0.00 0.00 100
20260901162926 18 250 9.7 16.1 0.00 0.00 0.00 100
20260901162825 18 252 9.7 16.1 0.00 0.00 0.00 100
20260901162724 18 255 9.7 12.9 0.00 0.00 0.00 100
20260901162523 18 248 9.7 14.5 0.00 0.00 0.00 100
20260901162321 18 254 9.7 14.5 0.00 0.00 0.00 100
20260901162120 18 261 9.7 14.5 0.00 0.00 0.00 100
20260901161917 18 263 12.9 16.1 0.00 0.00 0.00 100
20260901161815 18 263 12.9 20.9 0.00 0.00 0.00 100
20260901161714 18 259 11.3 20.9 0.00 0.00 0.00 100
20260901161511 19 262 9.7 14.5 0.00 0.00 0.00 100
20260901161309 19 262 11.3 17.7 0.00 0.00 0.00 100
20260901161104 19 265 11.3 17.7 0.00 0.00 0.00 100
20260901160902 19 257 11.3 16.1 0.00 0.00 0.00 100
20260901160802 19 265 11.3 16.1 0.00 0.00 0.00 100
20260901160701 19 269 11.3 16.1 0.00 0.00 0.00 100
20260901160509 19 270 11.3 19.3 0.00 0.00 0.00 100
20260901160256 19 269 16.1 22.5 0.00 0.00 0.00 100
20260901160055 19 267 14.5 22.5 0.00 0.00 0.00 100
20260901155852 19 262 12.9 22.5 0.00 0.00 0.00 100
20260901155752 20 255 12.9 22.5 0.00 0.00 0.00 100
20260901155651 20 254 12.9 22.5 0.00 0.00 0.00 100
20260901155450 20 249 12.9 19.3 0.00 0.00 0.00 100
20260901155248 20 265 14.5 20.9 0.00 0.00 0.00 100
20260901155045 20 253 12.9 22.5 0.00 0.00 0.00 100
20260901154844 20 257 11.3 14.5 0.00 0.00 0.00 100
20260901154744 20 257 9.7 14.5 0.00 0.00 0.00 100
20260901154644 20 257 8.0 14.5 0.00 0.00 0.00 100
20260901154443 20 246 8.0 14.5 0.00 0.00 0.00 100
20260901154242 20 250 11.3 14.5 0.00 0.00 0.00 100
20260901154038 20 250 11.3 16.1 0.00 0.00 0.00 100
20260901153837 20 249 11.3 24.1 0.00 0.00 0.00 100
20260901153736 20 248 12.9 24.1 0.00 0.00 0.00 100
20260901153635 20 248 12.9 24.1 0.00 0.00 0.00 100
20260901153434 21 239 9.7 14.5 0.00 0.00 0.00 100
20260901153231 21 231 8.0 12.9 0.00 0.00 0.00 100
20260901153030 21 235 9.7 14.5 0.00 0.00 0.00 100
20260901152830 21 228 9.7 16.1 0.00 0.00 0.00 100
20260901152729 21 233 11.3 17.7 0.00 0.00 0.00 100
20260901152414 22 232 16.1 24.1 0.00 0.00 0.00 100
20260901152213 23 237 14.5 24.1 0.00 0.00 0.00 100
20260901152012 23 237 12.9 20.9 0.00 0.00 0.00 100
20260901151812 23 249 14.5 20.9 0.00 0.00 0.00 100
20260901151710 23 257 16.1 24.1 0.00 0.00 0.00 100
20260901151610 23 251 14.5 24.1 0.00 0.00 0.00 100
20260901151409 23 250 12.9 17.7 0.00 0.00 0.00 100
20260901151207 23 249 12.9 20.9 0.00 0.00 0.00 100
20260901151007 23 253 14.5 20.9 0.00 0.00 0.00 100
20260901150807 23 241 16.1 27.4 0.00 0.00 0.00 100
20260901150702 24 236 14.5 27.4 0.00 0.00 0.00 100
20260901150605 23 229 12.9 20.9 0.00 0.00 0.00 100
20260901150402 23 230 12.9 19.3 0.00 0.00 0.00 100
20260901150159 23 239 12.9 19.3 0.00 0.00 0.00 100
20260901150000 22 236 12.9 17.7 0.00 0.00 0.00 100
20260901145759 22 243 14.5 20.9 0.00 0.00 0.00 100
20260901145658 22 247 14.5 20.9 0.00 0.00 0.00 100
20260901145558 22 244 14.5 20.9 0.00 0.00 0.00 100
20260901145357 23 247 14.5 20.9 0.00 0.00 0.00 100
20260901145152 23 248 14.5 20.9 0.00 0.00 0.00 100
20260901144953 23 235 9.7 14.5 0.00 0.00 0.00 100
20260901144753 24 229 11.3 20.9 0.00 0.00 0.00 100
20260901144650 24 236 12.9 20.9 0.00 0.00 0.00 100
20260901144551 24 247 16.1 22.5 0.00 0.00 0.00 100
20260901144351 23 259 16.1 22.5 0.00 0.00 0.00 100
20260901144146 22 246 12.9 27.4 0.00 0.00 0.00 100
20260901143948 23 235 16.1 27.4 0.00 0.00 0.00 100
20260901143757 23 231 11.3 17.7 0.00 0.00 0.00 100
20260901143642 23 233 12.9 20.9 0.00 0.00 0.00 100
20260901143546 23 230 14.5 20.9 0.00 0.00 0.00 100
20260901143343 23 228 14.5 19.3 0.00 0.00 0.00 100
20260901143138 23 236 17.7 29.0 0.00 0.00 0.00 100
20260901142940 23 237 17.7 29.0 0.00 0.00 0.00 100
20260901142737 22 236 17.7 24.1 0.00 0.00 0.00 100
20260901142635 22 238 16.1 24.1 0.00 0.00 0.00 100
20260901142536 22 230 14.5 22.5 0.00 0.00 0.00 100
20260901142335 22 235 11.3 19.3 0.00 0.00 0.00 100
20260901142130 23 241 14.5 20.9 0.00 0.00 0.00 100
20260901141931 23 241 17.7 29.0 0.00 0.00 0.00 100
20260901141730 25 243 17.7 27.4 0.00 0.00 0.00 100
20260901141626 25 247 19.3 27.4 0.00 0.00 0.00 100
20260901141528 25 244 20.9 27.4 0.00 0.00 0.00 100
20260901141325 25 235 16.1 25.7 0.00 0.00 0.00 100
20260901141133 25 237 9.7 12.9 0.00 0.00 0.00 100
20260901141121 25 237 9.7 14.5 0.00 0.00 0.00 100
20260901140921 24 249 12.9 19.3 0.00 0.00 0.00 100
20260901140720 23 249 16.1 22.5 0.00 0.00 0.00 100
20260901140615 24 245 16.1 22.5 0.00 0.00 0.00 100
20260901140319 25 235 14.5 24.1 0.00 0.00 0.00 100
20260901140112 25 232 12.9 20.9 0.00 0.00 0.00 100